Location: Beetenbrück
(52.8113°N, 9.5946°E)
Time: 21:26:15
(UTC+00:00)

Cosmos 1025 Rocket - Pass Details

Date: 14 April 2026
Orbit: 586 x 609 km, 82.5° (Epoch: 12 May)

Event Time Altitude Azimuth Distance (km) Brightness Sun altitude
Rises 19:37:03 0° 356° (N) 2,830 7.0 -11.4°
Reaches altitude 10° 19:39:31 10° 8° (N) 1,926 5.9 -11.7°
Maximum altitude 19:43:11 28° 68° (ENE) 1,129 4.1 -12.2°
Enters shadow 19:45:20 19° 112° (ESE) 1,448 4.3 -12.5°
